Location: Adams
(39.9979°N, 79.0290°W)
Time: 04:55:30
(UTC+00:00)

Envisat - Visible Passes

Search period start: 21 October 2021 00:00
Search period end: 31 October 2021 00:00
Orbit: 764 x 766 km, 98.2° (Epoch: 20 October)

Date Brightness Start Highest point End Pass type
(mag) Time Alt. Az. Time Alt. Az. Time Alt. Az.
21 Oct 5.1 09:34:30 10° NE 09:38:51 28° E 09:43:09 10° SSE visible
22 Oct 6.1 08:59:41 10° ENE 09:01:38 12° E 09:03:35 10° ESE visible
22 Oct 2.9 10:36:05 10° N 10:41:10 74° WNW 10:46:13 10° SSW visible
23 Oct 4.0 09:59:21 10° NNE 10:04:18 49° E 10:09:12 10° S visible
23 Oct 6.2 22:54:34 10° SW 22:57:25 15° W 23:00:17 10° NW visible
24 Oct 5.4 09:23:20 10° NE 09:27:14 22° E 09:31:06 10° SE visible
24 Oct 3.4 11:01:37 10° N 11:06:23 42° WNW 11:11:08 10° SW visible
25 Oct 3.0 10:24:32 10° NNE 10:29:39 87° ESE 10:34:44 10° SSW visible
26 Oct 4.5 09:47:59 10° NNE 09:52:43 38° E 09:57:25 10° SSE visible
26 Oct 6.0 22:42:11 10° SW 22:45:46 19° W 22:49:23 10° NW visible
27 Oct 5.8 09:12:18 10° NE 09:15:36 17° E 09:18:52 10° SE visible
27 Oct 3.1 10:49:58 10° N 10:54:55 53° WNW 10:59:50 10° SSW visible
28 Oct 3.3 10:13:02 10° NNE 10:18:07 69° ESE 10:23:10 10° S visible
28 Oct 6.7 23:10:36 10° W 23:11:23 10° W 23:12:10 10° W visible
29 Oct 4.9 09:36:40 10° NE 09:41:07 30° E 09:45:33 10° SSE visible
30 Oct 6.1 09:01:35 10° ENE 09:03:56 13° E 09:06:18 10° ESE visible
30 Oct 2.9 10:38:21 10° N 10:43:25 68° WNW 10:48:27 10° SSW visible
